This is the latest recevied weather packets stored in our database for station/object AB4CZ-1. If no packets are shown the sender has not sent any weather packets the latest 10 day(s).
| Time | Temp. | Humidity | Pressure | Rain* | Wind** | Luminosity | Snow |
|---|---|---|---|---|---|---|---|
| 1788140569 | 78° F | 88% | 765.7 mmHg | 0 in | - | - | - |
| 1788140000 | 78° F | 87% | 765.7 mmHg | 0 in | - | - | - |
| 1788139969 | 78° F | 87% | 765.7 mmHg | 0 in | - | - | - |
| 1788138769 | 79° F | 86% | 765.4 mmHg | 0 in | - | - | - |
| 1788138169 | 79° F | 86% | 765.4 mmHg | 0 in | - | - | - |
| 1788137569 | 80° F | 84% | 765.2 mmHg | 0 in | - | - | - |
| 1788136969 | 80° F | 82% | 765.2 mmHg | 0 in | - | - | - |
| 1788136369 | 80° F | 81% | 765.2 mmHg | 0 in | - | - | - |
| 1788135169 | 82° F | 79% | 765.1 mmHg | 0 in | - | - | - |
| 1788134605 | 82° F | 78% | 765 mmHg | 0 in | - | - | - |
| 1788134569 | 82° F | 78% | 765 mmHg | 0 in | - | - | - |
| 1788134269 | 83° F | 77% | 765 mmHg | 0 in | - | - | - |
| 1788133369 | 83° F | 74% | 764.8 mmHg | 0 in | - | - | - |
| 1788133069 | 84° F | 73% | 764.8 mmHg | 0 in | - | - | - |
| 1788132769 | 84° F | 73% | 764.9 mmHg | 0 in | - | - | - |
| 1788132469 | 84° F | 72% | 764.8 mmHg | 0 in | - | - | - |
| 1788131569 | 85° F | 68% | 764.9 mmHg | 0 in | - | - | - |
| 1788130969 | 86° F | 66% | 765 mmHg | 0 in | - | - | - |
| 1788130669 | 86° F | 65% | 765 mmHg | 0 in | - | - | - |
| 1788130069 | 87° F | 64% | 764.9 mmHg | 0 in | - | - | - |
| 1788129469 | 87° F | 62% | 764.8 mmHg | 0 in | - | - | - |
| 1788129171 | 88° F | 60% | 764.8 mmHg | 0 in | - | - | - |
| 1788128869 | 88° F | 61% | 764.9 mmHg | 0 in | - | - | - |
| 1788128269 | 87° F | 62% | 765 mmHg | 0 in | - | - | - |
| 1788127969 | 87° F | 62% | 764.8 mmHg | 0 in | - | - | - |
* Rain latest hour (hover to see other rain measurements)
** Current wind speed in m/s (hover to see current wind gust speed)